Regional Weather Roundup
Issued by NWS

Home | Current Version | Previous Version | Text Only | Print | Product List | Glossary On
Versions: 1 2 3 4 5 6 7 8 9 10 11 12 13 14 15 16 17 18 19 20 21 22 23 24 25 26 27 28 29 30 31 32 33 34 35 36 37 38 39 40 41 42 43 44 45 46 47 48 49 50
000
ASUS43 KLOT 250810
RWRIL

ILLINOIS REGIONAL WEATHER ROUNDUP
NATIONAL WEATHER SERVICE CHICAGO/ROMEOVILLE IL
300 AM CDT FRI APR 25 2014

NOTE: "FAIR" INDICATES FEW OR NO CLOUDS BELOW 12,000 FEET WITH NO
SIGNIFICANT WEATHER AND/OR OBSTRUCTIONS TO VISIBILITY.

* THESE STATIONS ARE NOT UNDER NWS QUALITY CONTROL. THEY ALSO MAY NOT
  REPORT WEATHER SUCH AS PRECIPITATION OR FOG.

ILZ001-002-007-009-015-016-024-250900-
NORTHWEST ILLINOIS

CITY           SKY/WX    TMP DP  RH WIND       PRES   REMARKS
MOLINE         CLOUDY    47  43  86 NW13      29.72R
STERLING*      CLOUDY    50  46  87 N15G22    29.68R
SAVANNA*       CLOUDY    48  44  87 NW10      29.71R
$$

ILZ003-004-008-010-011-017-018-250900-
NORTH CENTRAL ILLINOIS

CITY           SKY/WX    TMP DP  RH WIND       PRES   REMARKS
ROCKFORD       CLOUDY    50  47  89 N7        29.68S FOG
FREEPORT*      CLOUDY    45  43  91 NW18      29.71R
ROCHELLE*      LGT RAIN  49  46  90 NW6       29.66R
DE KALB*       CLOUDY    46  43  88 N6        29.65S
PERU*          CLOUDY    51  46  84 NW10      29.64R
$$

ILZ005-006-012>014-019>023-250900-
NORTHEAST ILLINOIS

CITY           SKY/WX    TMP DP  RH WIND       PRES   REMARKS
CHICAGO-OHARE  LGT RAIN  45  40  82 NE12      29.62F
CHICAGO-MIDWAY RAIN      50  47  89 N6        29.64R
AURORA         CLOUDY    49  45  86 N7        29.64R
LANSING*       RAIN      48  42  78 CALM      29.63F
JOLIET*        DRIZZLE   49  47  93 E6        29.61F
WAUKEGAN       LGT RAIN  43  39  86 NW9       29.65F
DUPAGE AIRPORT CLOUDY    47  44  90 NW15      29.65R
KANKAKEE*      DRIZZLE   50  49  94 CALM      29.62F
WHEELING       LGT RAIN  44  41  89 E12       29.62F
MORRIS*        RAIN      52  51  97 CALM      29.61S
ROMEOVILLE*    DRIZZLE   48  48 100 E8        29.61F
NORTHERLY ISL    N/A     48  44  86 NE6         N/A
$$

LMZ740>746-250900-
SOUTHERN LAKE MICHIGAN

STATION/POSITION SKY/WX   TEMP    WIND        PRES    VSBY  WAVE
                          AIR SEA DIR/SP/G                  HT/PER
                          (F)     (DEG/KT/KT) (MB)    (MI)  (FT/S)
WAUKEGAN HARBOR            42     120/ 21/ 25 1003.4F
HARRISON CRIB              44     360/  6/  8   N/A
BURNHAM HARBOR             47      20/  8       N/A
CALUMET HARBOR             48     160/  4/  6 1004.5S
MICHIGAN CITY              52     120/  8/ 12   N/A
$$

ILZ025>027-034>036-040-047-049-050-058-095>099-250900-
WEST-CENTRAL ILLINOIS

CITY           SKY/WX    TMP DP  RH WIND       PRES   REMARKS
QUINCY         CLOUDY    48  46  93 NW12      29.77R
GALESBURG*     CLOUDY    47  46  97 NW13G20   29.71R
MACOMB*        CLOUDY    47  47 100 NW18      29.74R
JACKSONVILLE*  CLOUDY    53  50  90 NW15G22   29.72R
PITTSFIELD*    CLOUDY    51  47  83 NW13G18   29.77R
$$

ILZ028>032-037-038-041>044-048-051>054-059>061-250900-
CENTRAL ILLINOIS

CITY           SKY/WX    TMP DP  RH WIND       PRES   REMARKS
PONTIAC        CLOUDY    57  55  94 W13       29.61S FOG
BLOOMINGTON    CLOUDY    53  52  97 NW15      29.64R FOG
DECATUR        LGT RAIN  57  55  93 W9        29.62S FOG
PEORIA         CLOUDY    55  50  83 N12G18    29.66R
LACON*         CLOUDY    53  50  91 NW12      29.65R
LINCOLN*       CLOUDY    56  53  91 NW8       29.64R FOG
SPRINGFIELD    CLOUDY    55  52  89 NW15      29.67R FOG
TAYLORVILLE    LGT RAIN  54  52  94 NW16      29.64R
$$

ILZ033-039-045-046-055>057-062-063-250900-
EAST-CENTRAL ILLINOIS

CITY           SKY/WX    TMP DP  RH WIND       PRES   REMARKS
CHAMPAIGN      LGT RAIN  56  55  97 W6        29.62R FOG
RANTOUL*       LGT RAIN  58  55  91 CALM      29.62S
MATTOON        LGT RAIN  56  56 100 W3        29.61S FOG
PARIS*         LGT RAIN  55  53  95 CALM      29.61R
$$

ILZ079-100>102-250900-
SOUTHWEST ILLINOIS

CITY           SKY/WX    TMP DP  RH WIND       PRES   REMARKS
ALTON          CLOUDY    54  54 100 W20       29.71R FOG
BELLEVILLE     LGT RAIN  55  55 100 W21G30    29.69R
CAHOKIA*       CLOUDY    55  51  86 W20G25    29.72R
SPARTA*        CLOUDY    55  54  94 W13G18    29.70R
$$

ILZ064>066-069>071-074>076-080>082-084>086-088>090-092>094-250900-
SOUTH-CENTRAL ILLINOIS

CITY           SKY/WX    TMP DP  RH WIND       PRES   REMARKS
CARBONDALE     LGT RAIN  58  56  93 W7        29.68R
CAIRO*         CLOUDY    60  56  87 W7        29.72R
MARION         CLOUDY    59  57  94 W7        29.68R
MT. VERNON     CLOUDY    57  48  72 SW8       29.66R
CENTRALIA*     RAIN      56  54  91 NW13G21   29.66R
SALEM*         RAIN      58  56  94 NW18G26   29.65R
METROPOLIS*    PTCLDY    58  56  94 W7        29.69R
$$

ILZ067-068-072-073-078-083-087-091-250900-
SOUTHEAST ILLINOIS

CITY           SKY/WX    TMP DP  RH WIND       PRES   REMARKS
FLORA*         CLOUDY    56  56  99 W6        29.64R
FAIRFIELD*     CLOUDY    57  57 100 W3        29.64R
HARRISBURG*    CLOUDY    57  57 100 W7        29.67R
ROBINSON*      DRIZZLE   58  58  98 SE6       29.61R
CARMI*         DRIZZLE   59  58  97 W9        29.63R
$$

ABBREVIATIONS USED IN REMARKS
   TC - TEMPERATURE IN CELSIUS
  WCI - WIND CHILL INDEX
   HX - HEAT INDEX
  VSB - VISIBILITY
$$




USA.gov is the U.S. government's official web portal to all federal, state and local government web resources and services.